VCTRY47 KNTU-KNTU

Flight info

Callsign VCTRY47
Flight time 1h 13m
Altitude 17000
Route CANOB KW36A HOBOH ZIBUT KW45A IMELL KW36A ZINEP ROWZO HUGEE HENIP WENID
Aircraft F18/H-A/C

Departure

Time 2026-05-01 07:29
Airport Oceana Naval Air Station (KNTU)

Arrival

Time 2026-05-01 08:42
Airport Oceana Naval Air Station (KNTU)
Time Latitude Longitude Altitude Speed Heading
2026-05-01 07:23 35.77640 -76.01816 11602 ft 292 kts 348°
2026-05-01 07:23 35.81787 -76.01434 11620 ft 342 kts
2026-05-01 07:24 35.84488 -76.00870 11586 ft 415 kts
2026-05-01 07:24 35.87300 -76.00246 11600 ft 411 kts
2026-05-01 07:24 35.90118 -75.99620 11606 ft 412 kts
2026-05-01 07:24 35.92950 -75.98988 11597 ft 412 kts
2026-05-01 07:25 35.95766 -75.98357 11600 ft 412 kts
2026-05-01 07:25 35.98586 -75.97722 11601 ft 412 kts
2026-05-01 07:25 36.01407 -75.97084 11599 ft 412 kts
2026-05-01 07:25 36.04234 -75.96443 11600 ft 412 kts
2026-05-01 07:26 36.07052 -75.95800 11600 ft 412 kts
2026-05-01 07:26 36.09871 -75.95154 11600 ft 412 kts
2026-05-01 07:26 36.12688 -75.94505 11600 ft 412 kts
2026-05-01 07:26 36.15514 -75.93851 11600 ft 412 kts
2026-05-01 07:27 36.18333 -75.93195 11600 ft 412 kts
2026-05-01 07:27 36.21148 -75.92537 11600 ft 411 kts
2026-05-01 07:27 36.23959 -75.91876 11600 ft 412 kts
2026-05-01 07:27 36.26778 -75.91208 11600 ft 411 kts
2026-05-01 07:28 36.29595 -75.90539 11601 ft 411 kts
2026-05-01 07:28 36.32408 -75.89865 11600 ft 412 kts
2026-05-01 07:28 36.35220 -75.89187 11600 ft 412 kts
2026-05-01 07:28 36.38035 -75.88503 11601 ft 413 kts
2026-05-01 07:29 36.40857 -75.87813 11600 ft 413 kts
2026-05-01 07:29 36.43677 -75.87117 11600 ft 413 kts
2026-05-01 07:29 36.46494 -75.86417 11600 ft 414 kts
2026-05-01 07:29 36.49314 -75.85710 11604 ft 413 kts
2026-05-01 07:30 36.52124 -75.84999 11601 ft 413 kts
2026-05-01 07:30 36.54941 -75.84280 11839 ft 413 kts
2026-05-01 07:30 36.57782 -75.83552 12643 ft 420 kts
2026-05-01 07:30 36.60562 -75.82831 13474 ft 426 kts
2026-05-01 07:31 36.63565 -75.82044 14384 ft 433 kts
2026-05-01 07:31 36.72605 -75.79619 17121 ft 454 kts
2026-05-01 07:32 36.78768 -75.77901 17051 ft 454 kts
2026-05-01 07:32 36.81859 -75.77015 17052 ft 454 kts
2026-05-01 07:33 36.88011 -75.75193 17043 ft 456 kts
2026-05-01 07:33 36.91100 -75.74244 17041 ft 457 kts
2026-05-01 07:33 36.97262 -75.72269 17041 ft 458 kts
2026-05-01 07:34 37.00341 -75.71231 17040 ft 458 kts
2026-05-01 07:34 37.06481 -75.69030 17040 ft 460 kts 11°
2026-05-01 07:34 37.09543 -75.67848 17040 ft 461 kts 12°
2026-05-01 07:35 37.12588 -75.66601 17040 ft 461 kts 13°
2026-05-01 07:35 37.15623 -75.65266 17040 ft 463 kts 14°
2026-05-01 07:35 37.18635 -75.63823 17040 ft 464 kts 16°
2026-05-01 07:35 37.21615 -75.62238 17040 ft 466 kts 19°
2026-05-01 07:36 37.24539 -75.60462 17040 ft 469 kts 22°
2026-05-01 07:36 37.27372 -75.58415 17039 ft 472 kts 28°
2026-05-01 07:36 37.30006 -75.56004 17039 ft 477 kts 36°
2026-05-01 07:36 37.32328 -75.52989 17038 ft 484 kts 50°
2026-05-01 07:37 37.34713 -75.45060 17044 ft 492 kts 87°
2026-05-01 07:37 37.34630 -75.40767 17043 ft 490 kts 97°
2026-05-01 07:37 37.34211 -75.36587 17032 ft 489 kts 100°
2026-05-01 07:38 37.33680 -75.32361 17040 ft 489 kts 101°
2026-05-01 07:38 37.33125 -75.28142 17041 ft 489 kts 101°
2026-05-01 07:38 37.32009 -75.19717 17040 ft 489 kts 101°
2026-05-01 07:39 37.31450 -75.15496 17040 ft 489 kts 101°
2026-05-01 07:39 37.30895 -75.11303 17041 ft 486 kts 101°
2026-05-01 07:39 37.29781 -75.02898 17039 ft 488 kts 101°
2026-05-01 07:40 37.29225 -74.98698 17036 ft 488 kts 101°
2026-05-01 07:40 37.28668 -74.94489 17042 ft 488 kts 101°
2026-05-01 07:40 37.28111 -74.90288 17040 ft 488 kts 101°
2026-05-01 07:40 37.27554 -74.86086 17040 ft 488 kts 101°
2026-05-01 07:41 37.26997 -74.81881 17040 ft 488 kts 101°
2026-05-01 07:41 37.26441 -74.77688 17040 ft 488 kts 101°
2026-05-01 07:41 37.25331 -74.69312 17040 ft 486 kts 101°
2026-05-01 07:42 37.24776 -74.65127 17040 ft 487 kts 101°
2026-05-01 07:42 37.24221 -74.60937 17040 ft 487 kts 101°
2026-05-01 07:42 37.23665 -74.56749 17040 ft 487 kts 101°
2026-05-01 07:42 37.23109 -74.52554 17039 ft 487 kts 101°
2026-05-01 07:43 37.22554 -74.48369 17041 ft 487 kts 101°
2026-05-01 07:43 37.21999 -74.44184 17040 ft 486 kts 102°
2026-05-01 07:43 37.20889 -74.35819 17040 ft 486 kts 102°
2026-05-01 07:44 37.19778 -74.27445 17041 ft 486 kts 102°
2026-05-01 07:44 37.18667 -74.19072 17040 ft 486 kts 102°
2026-05-01 07:45 37.18135 -74.15041 17038 ft 444 kts 102°
2026-05-01 07:45 37.17634 -74.11284 17043 ft 436 kts 102°
2026-05-01 07:45 37.17137 -74.07593 17038 ft 436 kts 102°
2026-05-01 07:45 37.16632 -74.03838 16615 ft 434 kts 102°
2026-05-01 07:46 37.16137 -74.00139 16018 ft 428 kts 102°
2026-05-01 07:46 37.15648 -73.96491 15413 ft 420 kts 102°
2026-05-01 07:46 37.14688 -73.89336 14213 ft 411 kts 102°
2026-05-01 07:47 37.14216 -73.85829 13622 ft 407 kts 102°
2026-05-01 07:47 37.13748 -73.82348 13034 ft 403 kts 102°
2026-05-01 07:47 37.13285 -73.78916 12451 ft 397 kts 102°
2026-05-01 07:47 37.12828 -73.75527 11875 ft 392 kts 102°
2026-05-01 07:48 37.11927 -73.68842 10731 ft 384 kts 101°
2026-05-01 07:48 37.11484 -73.65558 10070 ft 380 kts 101°
2026-05-01 07:48 37.11048 -73.62316 9316 ft 373 kts 100°
2026-05-01 07:49 37.10617 -73.59125 8563 ft 370 kts 99°
2026-05-01 07:49 37.09766 -73.52858 7079 ft 362 kts 99°
2026-05-01 07:49 37.09345 -73.49764 6348 ft 357 kts 99°
2026-05-01 07:50 37.08931 -73.46716 5968 ft 355 kts 98°
2026-05-01 07:50 37.08096 -73.40623 5965 ft 354 kts 99°
2026-05-01 07:50 37.07678 -73.37580 5972 ft 354 kts 99°
2026-05-01 07:51 37.07262 -73.34544 5990 ft 355 kts 99°
2026-05-01 07:51 37.06844 -73.31503 5979 ft 354 kts 99°
2026-05-01 07:51 37.06426 -73.28460 5977 ft 354 kts 99°
2026-05-01 07:52 37.05591 -73.22374 5979 ft 355 kts 99°
2026-05-01 07:52 37.05174 -73.19344 5262 ft 353 kts 98°
2026-05-01 07:52 37.04758 -73.16363 4498 ft 344 kts 98°
2026-05-01 07:53 37.03876 -73.10506 2005 ft 409 kts 98°
2026-05-01 07:53 37.03339 -73.06746 327 ft 375 kts 94°
2026-05-01 07:53 37.03318 -73.06068 0 ft 250 kts
2026-05-01 07:53 37.05015 -72.96069 6663 ft 280 kts 139°
2026-05-01 07:54 37.01176 -72.94635 3848 ft 283 kts 221°
2026-05-01 07:55 37.01488 -73.01831 1880 ft 302 kts 294°
2026-05-01 07:55 37.02861 -73.06267 904 ft 248 kts 288°
2026-05-01 07:56 37.04011 -73.11262 357 ft 161 kts 253°
2026-05-01 07:56 37.01524 -73.12597 1064 ft 215 kts 185°
2026-05-01 07:57 37.00244 -73.13164 1732 ft 196 kts 219°
2026-05-01 07:57 36.99129 -73.16362 1049 ft 251 kts 300°
2026-05-01 07:58 37.01818 -73.16023 711 ft 315 kts 77°
2026-05-01 07:58 37.02476 -73.10098 705 ft 356 kts 89°
2026-05-01 07:59 37.01801 -73.04146 935 ft 311 kts 57°
2026-05-01 07:59 37.03715 -73.04999 346 ft 179 kts 264°
2026-05-01 08:00 37.00949 -73.04738 1028 ft 276 kts 108°
2026-05-01 08:01 37.02025 -73.01974 276 ft 277 kts 288°
2026-05-01 08:01 37.02548 -73.03872 480 ft 196 kts 295°
2026-05-01 08:01 37.02925 -73.05318 389 ft 160 kts 272°
2026-05-01 08:02 37.00975 -73.06239 342 ft 222 kts 166°
2026-05-01 08:02 36.99496 -73.05533 1004 ft 267 kts 121°
2026-05-01 08:03 36.97661 -72.99248 1695 ft 448 kts 87°
2026-05-01 08:03 36.99333 -72.96572 1710 ft 412 kts 21°
2026-05-01 08:03 37.02231 -72.99974 1264 ft 275 kts 285°
2026-05-01 08:04 37.02499 -73.03497 1195 ft 166 kts 229°
2026-05-01 08:04 37.00655 -73.02565 427 ft 159 kts 115°
2026-05-01 08:05 37.00209 -72.99815 259 ft 163 kts 98°
2026-05-01 08:05 36.99963 -72.98452 73 ft 110 kts 99°
2026-05-01 08:05 36.99876 -72.98143 73 ft 35 kts 99°
2026-05-01 08:06 36.99814 -72.97932 73 ft 35 kts 99°
2026-05-01 08:06 36.99758 -72.97738 73 ft 35 kts 99°
2026-05-01 08:07 36.99592 -72.97139 73 ft 40 kts 122°
2026-05-01 08:07 36.99429 -72.96637 73 ft 30 kts 266°
2026-05-01 08:08 36.99320 -72.96325 73 ft 30 kts 321°
2026-05-01 08:08 36.99191 -72.95806 73 ft 41 kts 104°
2026-05-01 08:09 36.99023 -72.95226 73 ft 35 kts 105°
2026-05-01 08:09 36.98924 -72.94868 73 ft 170 kts 105°
2026-05-01 08:09 36.98642 -72.92734 968 ft 260 kts 65°
2026-05-01 08:10 37.00359 -72.94030 1090 ft 200 kts 287°
2026-05-01 08:10 37.00313 -72.96631 1551 ft 147 kts 242°
2026-05-01 08:11 36.98702 -72.96000 220 ft 149 kts 96°
2026-05-01 08:11 36.98360 -72.93485 258 ft 150 kts 100°
2026-05-01 08:12 36.98018 -72.91753 73 ft 35 kts 95°
2026-05-01 08:12 36.97913 -72.91411 73 ft 35 kts 213°
2026-05-01 08:12 36.97764 -72.90970 73 ft 32 kts 319°
2026-05-01 08:13 36.97692 -72.90669 73 ft 37 kts 80°
2026-05-01 08:13 36.97607 -72.90364 73 ft 40 kts 107°
2026-05-01 08:13 36.97439 -72.89789 73 ft 35 kts 107°
2026-05-01 08:14 36.97357 -72.89507 73 ft 35 kts 105°
2026-05-01 08:14 36.97058 -72.88078 708 ft 243 kts 98°
2026-05-01 08:14 36.96776 -72.85978 2277 ft 249 kts 106°
2026-05-01 08:14 36.95767 -72.84019 3933 ft 299 kts 135°
2026-05-01 08:15 36.93994 -72.82550 5491 ft 321 kts 159°
2026-05-01 08:15 36.89440 -72.82648 8018 ft 359 kts 207°
2026-05-01 08:15 36.87351 -72.84459 9452 ft 365 kts 228°
2026-05-01 08:16 36.85969 -72.87089 10918 ft 366 kts 249°
2026-05-01 08:16 36.85471 -72.90191 12425 ft 367 kts 266°
2026-05-01 08:16 36.85464 -72.93395 13970 ft 372 kts 268°
2026-05-01 08:16 36.85474 -72.96648 15540 ft 377 kts 268°
2026-05-01 08:17 36.85483 -72.99935 17135 ft 380 kts 268°
2026-05-01 08:17 36.85490 -73.03351 16983 ft 390 kts 268°
2026-05-01 08:17 36.85497 -73.06708 16975 ft 387 kts 268°
2026-05-01 08:17 36.85503 -73.10082 17052 ft 390 kts 268°
2026-05-01 08:18 36.85508 -73.13449 17012 ft 387 kts 268°
2026-05-01 08:18 36.85516 -73.20196 17024 ft 389 kts 268°
2026-05-01 08:19 36.85519 -73.26925 17021 ft 386 kts 268°
2026-05-01 08:19 36.85520 -73.30288 17020 ft 388 kts 268°
2026-05-01 08:19 36.85519 -73.33655 17020 ft 388 kts 268°
2026-05-01 08:19 36.85518 -73.37025 17020 ft 388 kts 268°
2026-05-01 08:20 36.85515 -73.40433 17020 ft 388 kts 268°
2026-05-01 08:20 36.85512 -73.43759 17020 ft 388 kts 268°
2026-05-01 08:20 36.85508 -73.47123 17020 ft 388 kts 268°
2026-05-01 08:20 36.85502 -73.50487 17020 ft 388 kts 268°
2026-05-01 08:21 36.85495 -73.53852 17021 ft 388 kts 268°
2026-05-01 08:21 36.85488 -73.57213 17020 ft 388 kts 268°
2026-05-01 08:21 36.85480 -73.60585 17020 ft 388 kts 268°
2026-05-01 08:21 36.85471 -73.63948 17020 ft 388 kts 268°
2026-05-01 08:22 36.85460 -73.67314 17020 ft 388 kts 268°
2026-05-01 08:22 36.85449 -73.70671 17020 ft 384 kts 268°
2026-05-01 08:22 36.85438 -73.74013 17020 ft 386 kts 268°
2026-05-01 08:22 36.85425 -73.77369 17020 ft 387 kts 268°
2026-05-01 08:23 36.85411 -73.80724 17020 ft 386 kts 268°
2026-05-01 08:23 36.85396 -73.84076 17021 ft 386 kts 268°
2026-05-01 08:23 36.85380 -73.87435 17021 ft 386 kts 268°
2026-05-01 08:23 36.85364 -73.90788 17019 ft 386 kts 268°
2026-05-01 08:24 36.85346 -73.94137 17020 ft 386 kts 268°
2026-05-01 08:24 36.85327 -73.97491 17020 ft 386 kts 268°
2026-05-01 08:24 36.85307 -74.00849 17020 ft 386 kts 268°
2026-05-01 08:24 36.85287 -74.04171 17020 ft 383 kts 268°
2026-05-01 08:25 36.85264 -74.07509 17020 ft 385 kts 268°
2026-05-01 08:25 36.85240 -74.10844 17020 ft 385 kts 268°
2026-05-01 08:25 36.85216 -74.14185 17021 ft 385 kts 268°
2026-05-01 08:25 36.85191 -74.17529 17020 ft 385 kts 268°
2026-05-01 08:26 36.85165 -74.20863 17017 ft 385 kts 268°
2026-05-01 08:26 36.85138 -74.24203 17022 ft 382 kts 268°
2026-05-01 08:26 36.85110 -74.27517 17020 ft 383 kts 268°
2026-05-01 08:26 36.85082 -74.30841 17021 ft 384 kts 268°
2026-05-01 08:27 36.85053 -74.34179 17019 ft 384 kts 268°
2026-05-01 08:27 36.85022 -74.37508 17017 ft 384 kts 268°
2026-05-01 08:27 36.84991 -74.40838 17021 ft 384 kts 268°
2026-05-01 08:27 36.84960 -74.44167 17020 ft 384 kts 268°
2026-05-01 08:28 36.84927 -74.47495 17020 ft 383 kts 268°
2026-05-01 08:28 36.84894 -74.50823 17020 ft 383 kts 268°
2026-05-01 08:28 36.84859 -74.54156 17020 ft 383 kts 268°
2026-05-01 08:28 36.84836 -74.56302 17020 ft 383 kts 268°
2026-05-01 08:29 36.84828 -74.57095 17020 ft 383 kts 268°
2026-05-01 08:29 36.84816 -74.58188 17020 ft 383 kts 268°
2026-05-01 08:29 36.84800 -74.59713 17020 ft 383 kts 268°
2026-05-01 08:29 36.84763 -74.63037 17020 ft 383 kts 268°
2026-05-01 08:30 36.84726 -74.66320 17020 ft 383 kts 268°
2026-05-01 08:30 36.84687 -74.69650 17020 ft 383 kts 268°
2026-05-01 08:30 36.84647 -74.72979 17020 ft 383 kts 268°
2026-05-01 08:30 36.84607 -74.76304 17020 ft 383 kts 268°
2026-05-01 08:31 36.84566 -74.79629 17021 ft 383 kts 268°
2026-05-01 08:31 36.84524 -74.82961 17020 ft 383 kts 268°
2026-05-01 08:31 36.84481 -74.86286 17017 ft 383 kts 268°
2026-05-01 08:31 36.84437 -74.89613 17022 ft 383 kts 268°
2026-05-01 08:32 36.84393 -74.92935 17024 ft 383 kts 268°
2026-05-01 08:32 36.84348 -74.96258 17021 ft 380 kts 268°
2026-05-01 08:32 36.84281 -74.99558 17023 ft 381 kts 267°
2026-05-01 08:32 36.84154 -75.02871 17025 ft 382 kts 266°
2026-05-01 08:33 36.84040 -75.06182 17019 ft 382 kts 267°
2026-05-01 08:33 36.83931 -75.09503 17018 ft 382 kts 267°
2026-05-01 08:33 36.83809 -75.12801 16765 ft 380 kts 266°
2026-05-01 08:33 36.83683 -75.16096 16530 ft 380 kts 267°
2026-05-01 08:34 36.83552 -75.19383 16285 ft 379 kts 266°
2026-05-01 08:34 36.83419 -75.22671 16040 ft 378 kts 266°
2026-05-01 08:34 36.83287 -75.25944 15798 ft 377 kts 266°
2026-05-01 08:34 36.83155 -75.29211 15558 ft 377 kts 266°
2026-05-01 08:35 36.83023 -75.32468 15318 ft 375 kts 266°
2026-05-01 08:35 36.82886 -75.35719 14910 ft 374 kts 266°
2026-05-01 08:35 36.82738 -75.38948 14216 ft 371 kts 266°
2026-05-01 08:35 36.82598 -75.42153 13508 ft 368 kts 270°
2026-05-01 08:36 36.82798 -75.45341 12807 ft 367 kts 276°
2026-05-01 08:36 36.83146 -75.48484 12117 ft 365 kts 277°
2026-05-01 08:36 36.83503 -75.51623 11430 ft 365 kts 277°
2026-05-01 08:36 36.83840 -75.54758 10751 ft 366 kts 277°
2026-05-01 08:37 36.84156 -75.57914 10075 ft 366 kts 277°
2026-05-01 08:37 36.84447 -75.61076 9405 ft 367 kts 277°
2026-05-01 08:37 36.84717 -75.64251 8740 ft 367 kts 277°
2026-05-01 08:37 36.84969 -75.67413 8079 ft 364 kts 277°
2026-05-01 08:38 36.85211 -75.70530 7428 ft 358 kts 277°
2026-05-01 08:38 36.85445 -75.73622 6782 ft 356 kts 277°
2026-05-01 08:38 36.85672 -75.76680 6142 ft 352 kts 277°
2026-05-01 08:38 36.85891 -75.79717 5508 ft 349 kts 277°
2026-05-01 08:39 36.86098 -75.82580 4906 ft 315 kts 277°
2026-05-01 08:39 36.86284 -75.85175 4364 ft 286 kts 277°
2026-05-01 08:39 36.86448 -75.87515 4127 ft 250 kts 276°
2026-05-01 08:39 36.86471 -75.87915 4144 ft 249 kts 276°
2026-05-01 08:40 36.86511 -75.91981 3145 ft 215 kts 269°
2026-05-01 08:40 36.86366 -75.93613 2940 ft 157 kts 265°
2026-05-01 08:40 36.86247 -75.94854 2443 ft 141 kts 266°
2026-05-01 08:41 36.86119 -75.96060 1988 ft 141 kts 265°
2026-05-01 08:41 36.85974 -75.97273 1509 ft 141 kts 265°
2026-05-01 08:41 36.85743 -75.98482 967 ft 148 kts 253°
2026-05-01 08:41 36.85250 -75.99595 643 ft 149 kts 234°
2026-05-01 08:42 36.84524 -76.00496 435 ft 147 kts 225°
2026-05-01 08:42 36.83769 -76.01349 235 ft 146 kts 225°
2026-05-01 08:42 36.83023 -76.02203 44 ft 145 kts 225°
2026-05-01 08:42 36.82510 -76.02789 30 ft 44 kts 220°
2026-05-01 08:43 36.82437 -76.02863 30 ft 7 kts 210°
2026-05-01 08:43 36.82392 -76.02844 30 ft 9 kts 138°
2026-05-01 08:43 36.82349 -76.02801 30 ft 7 kts 197°
2026-05-01 08:43 36.82286 -76.02863 30 ft 18 kts 224°
2026-05-01 08:44 36.82221 -76.02932 30 ft 7 kts 221°
2026-05-01 08:44 36.82163 -76.02997 30 ft 13 kts 223°
2026-05-01 08:44 36.82104 -76.03064 30 ft 12 kts 221°
2026-05-01 08:44 36.82028 -76.03150 30 ft 11 kts 219°
2026-05-01 08:45 36.81975 -76.03208 30 ft 10 kts 221°
2026-05-01 08:45 36.81917 -76.03185 30 ft 19 kts 135°
2026-05-01 08:45 36.81832 -76.03091 30 ft 8 kts 208°
2026-05-01 08:45 36.81819 -76.03104 30 ft 0 kts 226°